Mineral'Nye Vody, Russia

12:03 AM MSK on May 24, 2017 (GMT +0300)
Mineralnyye Vody

Weather History for URMM - August, 2013

Change the Weather History Date:

Tuesday, August 27, 2013

  Actual Average Record
Temperature  
Mean Temperature 74 °F -  
Max Temperature 90 °F - - ()
Min Temperature 59 °F - - ()
Cooling Degree Days 10    
Growing Degree Days 24 (Base 50)    
Moisture  
Dew Point 50 °F    
Average Humidity 42    
Maximum Humidity 82    
Minimum Humidity 13    
Precipitation  
Precipitation 0.00 in - - ()
Sea Level Pressure  
Sea Level Pressure 29.93 in    
Wind  
Wind Speed 6 mph ()    
Max Wind Speed 11 mph    
Max Gust Speed 16 mph    
Visibility 6.7 miles    
Events      
T = Trace of Precipitation, MM = Missing Value Source: Averaged Metar Reports

Daily Weather History Graph

Daily Weather History Graph

Search for Another Location

Airport or City:

Trip Planner

Search our weather history database for the weather conditions in past years. The results will help you decide how hot, cold, wet, or windy it might be!

Date:

Astronomy

Aug. 27, 2013 Rise Set
Actual Time 6:24 AM MSK 7:52 PM MSK
Civil Twilight 5:54 AM MSK 8:22 PM MSK
Nautical Twilight 5:17 AM MSK 8:59 PM MSK
Astronomical Twilight 4:38 AM MSK 9:38 PM MSK
Moon 11:13 PM MSK (8/27) 1:18 PM MSK (8/27)
Length of Visible Light 14h 28m
Length of Day
13h 28m
Waning Gibbous, 60% of the Moon is Illuminated
Aug 27
Waning Gibbous
Aug 28
Last Quarter
Sep 5
New
Sep 12
First Quarter
Sep 19
Full

Hourly Weather History & Observations

Time (MSK) Temp. Dew Point Humidity Pressure Visibility Wind Dir Wind Speed Gust Speed Precip Events Conditions
12:00 AM 77.0 °F 53.6 °F 44% 29.89 in 6.2 mi West 6.7 mph 11.2 mph N/A   Mostly Cloudy
12:30 AM 75.2 °F 53.6 °F 47% 29.89 in 6.2 mi West 8.9 mph 15.7 mph N/A   Mostly Cloudy
1:00 AM 74 °F 51 °F 34% 29.88 in 6 mi WSW 2.2 mph - -  
1:00 AM 73.4 °F 53.6 °F 50% 29.89 in 6.2 mi WNW 6.7 mph - N/A   Mostly Cloudy
1:30 AM 71.6 °F 53.6 °F 53% 29.89 in 6.2 mi West 8.9 mph - N/A   Scattered Clouds
2:00 AM 69.8 °F 55.4 °F 60% 29.89 in 6.2 mi West 8.9 mph - N/A   Scattered Clouds
2:30 AM 66.2 °F 55.4 °F 68% 29.92 in 6.2 mi West 6.7 mph 11.2 mph N/A   Scattered Clouds
3:00 AM 66.2 °F 55.4 °F 68% 29.92 in 6.2 mi NW 6.7 mph 11.2 mph N/A   Scattered Clouds
3:30 AM 64.4 °F 55.4 °F 73% 29.92 in 6.2 mi WNW 6.7 mph - N/A   Clear
4:00 AM 64 °F 54 °F 60% 29.92 in 12 mi West 2.2 mph - -  
4:00 AM 62.6 °F 55.4 °F 77% 29.92 in 6.2 mi NW 8.9 mph 13.4 mph N/A   Clear
4:30 AM 62.6 °F 55.4 °F 77% 29.92 in 6.2 mi NW 8.9 mph - N/A   Clear
5:00 AM 60.8 °F 55.4 °F 82% 29.92 in 6.2 mi WNW 8.9 mph - N/A   Clear
5:30 AM 60.8 °F 55.4 °F 82% 29.92 in 6.2 mi NW 8.9 mph - N/A   Clear
6:00 AM 59.0 °F 53.6 °F 82% 29.95 in 6.2 mi NW 6.7 mph - N/A   Clear
6:30 AM 59.0 °F 53.6 °F 82% 29.95 in 6.2 mi NW 8.9 mph 13.4 mph N/A   Clear
7:00 AM 59.0 °F 53.6 °F 82% 29.95 in 6.2 mi WNW 11.2 mph 15.7 mph N/A   Clear
7:30 AM 60.8 °F 53.6 °F 77% 29.95 in 6.2 mi NNW 6.7 mph 11.2 mph N/A   Clear
8:00 AM 64.4 °F 51.8 °F 64% 29.95 in 6.2 mi NW 8.9 mph - N/A   Clear
8:30 AM 66.2 °F 51.8 °F 60% 29.95 in 6.2 mi NW 8.9 mph - N/A   Clear
9:00 AM 71.6 °F 53.6 °F 53% 29.95 in 6.2 mi WNW 8.9 mph - N/A   Clear
9:30 AM 75.2 °F 51.8 °F 44% 29.95 in 6.2 mi WNW 8.9 mph - N/A   Clear
10:00 AM 77 °F 48 °F 25% 29.94 in 12 mi WSW 4.5 mph - -  
10:00 AM 77.0 °F 44.6 °F 32% 29.95 in 6.2 mi West 8.9 mph - N/A   Clear
10:30 AM 78.8 °F 44.6 °F 30% 29.95 in 6.2 mi NW 4.5 mph 8.9 mph N/A   Clear
11:00 AM 80.6 °F 46.4 °F 30% 29.95 in 6.2 mi West 6.7 mph - N/A   Clear
11:30 AM 82.4 °F 44.6 °F 26% 29.95 in 6.2 mi SW 4.5 mph 8.9 mph N/A   Clear
12:00 PM 84.2 °F 44.6 °F 25% 29.95 in 6.2 mi North 4.5 mph 11.2 mph N/A   Clear
12:30 PM 86.0 °F 46.4 °F 25% 29.92 in 6.2 mi East 6.7 mph 13.4 mph N/A   Clear
1:00 PM 87 °F 46 °F 14% 29.89 in 12 mi NE 4.5 mph - -  
1:00 PM 84.2 °F 46.4 °F 27% 29.92 in 6.2 mi NE 4.5 mph 11.2 mph N/A   Clear
1:30 PM 86.0 °F 46.4 °F 25% 29.92 in 6.2 mi ENE 6.7 mph 15.7 mph N/A   Clear
2:00 PM 86.0 °F 46.4 °F 25% 29.92 in 6.2 mi NNE 6.7 mph 13.4 mph N/A   Clear
2:30 PM 87.8 °F 46.4 °F 24% 29.92 in 6.2 mi ESE 6.7 mph 13.4 mph N/A   Partly Cloudy
3:00 PM 87.8 °F 46.4 °F 24% 29.92 in 6.2 mi East 8.9 mph 13.4 mph N/A   Partly Cloudy
3:30 PM 87.8 °F 46.4 °F 24% 29.92 in 6.2 mi NE 4.5 mph 11.2 mph N/A   Scattered Clouds
4:00 PM 90 °F 46 °F 13% 29.86 in 12 mi North 4.5 mph - -   Scattered Clouds
4:00 PM 87.8 °F 46.4 °F 24% 29.89 in 6.2 mi East 6.7 mph 11.2 mph N/A   Scattered Clouds
4:30 PM 87.8 °F 46.4 °F 24% 29.89 in 6.2 mi East 6.7 mph 11.2 mph N/A   Scattered Clouds
5:00 PM 89.6 °F 46.4 °F 22% 29.89 in 6.2 mi NNE 4.5 mph 11.2 mph N/A   Scattered Clouds
5:30 PM 86.0 °F 46.4 °F 25% 29.92 in 6.2 mi ENE 4.5 mph 8.9 mph N/A   Mostly Cloudy
6:00 PM 87.8 °F 48.2 °F 25% 29.92 in 6.2 mi East 4.5 mph 8.9 mph N/A   Mostly Cloudy
6:30 PM 86.0 °F 46.4 °F 25% 29.92 in 6.2 mi ENE 6.7 mph - N/A   Mostly Cloudy
7:00 PM 84 °F 46 °F 17% 29.88 in 12 mi NE 2.2 mph - -  
7:00 PM 84.2 °F 48.2 °F 29% 29.92 in 6.2 mi East 4.5 mph - N/A   Mostly Cloudy
7:30 PM 82.4 °F 48.2 °F 30% 29.92 in 6.2 mi Calm Calm - N/A   Mostly Cloudy
8:00 PM 80.6 °F 48.2 °F 32% 29.92 in 6.2 mi ENE 4.5 mph - N/A   Mostly Cloudy
8:30 PM 78.8 °F 48.2 °F 34% 29.95 in 6.2 mi East 4.5 mph - N/A   Mostly Cloudy
9:00 PM 77.0 °F 48.2 °F 36% 29.95 in 6.2 mi East 4.5 mph - N/A   Mostly Cloudy
9:30 PM 77.0 °F 50.0 °F 39% 29.95 in 6.2 mi SSE 4.5 mph - N/A   Mostly Cloudy
10:00 PM 76 °F 48 °F 26% 29.95 in 6 mi East 2.2 mph - -   Scattered Clouds
10:00 PM 77.0 °F 48.2 °F 36% 29.98 in 6.2 mi SE 6.7 mph - N/A   Mostly Cloudy
10:30 PM 75.2 °F 48.2 °F 38% 29.98 in 6.2 mi East 4.5 mph 8.9 mph N/A   Scattered Clouds
11:00 PM 73.4 °F 48.2 °F 41% 29.98 in 6.2 mi NNE 4.5 mph - N/A   Scattered Clouds
11:30 PM 71.6 °F 48.2 °F 43% 29.98 in 6.2 mi Calm Calm - N/A   Scattered Clouds